Lovelock, NV

7:03 AM PST on February 26, 2017 (GMT -0800)
Derby

Weather History for KLOL - March, 2013

Change the Weather History Date:

Monday, March 4, 2013

  Actual Average Record
Temperature  
Mean Temperature 40 °F -  
Max Temperature 53 °F 51 °F 71 °F (1950)
Min Temperature 26 °F 24 °F 4 °F (1966)
Degree Days  
Heating Degree Days 24    
Moisture  
Dew Point 26 °F    
Average Humidity 60    
Maximum Humidity 82    
Minimum Humidity 40    
Precipitation  
Precipitation 0.00 in - - ()
Sea Level Pressure  
Sea Level Pressure 30.11 in    
Wind  
Wind Speed 6 mph (NNE)    
Max Wind Speed 12 mph    
Max Gust Speed -    
Visibility 10 miles    
Events      
Averages and records for this station are not official NWS values.
T = Trace of Precipitation, MM = Missing Value Source: NWS Daily Summary

Daily Weather History Graph

Daily Weather History Graph

Search for Another Location

Airport or City:

Trip Planner

Search our weather history database for the weather conditions in past years. The results will help you decide how hot, cold, wet, or windy it might be!

Date:

Astronomy

Mar. 04, 2013 Rise Set
Actual Time 6:22 AM PST 5:49 PM PST
Civil Twilight 5:55 AM PST 6:16 PM PST
Nautical Twilight 5:24 AM PST 6:48 PM PST
Astronomical Twilight 4:52 AM PST 7:19 PM PST
Moon 12:37 AM PST (3/4) 10:35 AM PST (3/4)
Length of Visible Light 12h 21m
Length of Day
11h 27m
Waning Gibbous, 51% of the Moon is Illuminated
Mar 4
Waning Gibbous
Mar 4
Last Quarter
Mar 11
New
Mar 19
First Quarter
Mar 27
Full

Hourly Weather History & Observations

Time (PST) Temp. Windchill Dew Point Humidity Pressure Visibility Wind Dir Wind Speed Gust Speed Precip Events Conditions
12:53 AM 37.0 °F 31.0 °F 30.9 °F 79% 30.06 in 10.0 mi NE 8.1 mph - N/A   Mostly Cloudy
1:53 AM 36.0 °F 28.0 °F 28.9 °F 76% 30.08 in 10.0 mi NNE 11.5 mph - N/A   Clear
2:53 AM 33.1 °F 28.7 °F 27.0 °F 78% 30.09 in 10.0 mi East 4.6 mph - N/A   Clear
3:53 AM 34.0 °F 31.0 °F 25.0 °F 70% 30.11 in 10.0 mi NNE 3.5 mph - N/A   Mostly Cloudy
4:53 AM 33.1 °F 26.9 °F 21.0 °F 61% 30.12 in 10.0 mi North 6.9 mph - N/A   Clear
5:53 AM 32.0 °F 24.2 °F 19.0 °F 59% 30.14 in 10.0 mi North 9.2 mph - N/A   Clear
6:53 AM 30.9 °F 26.2 °F 19.9 °F 64% 30.16 in 10.0 mi North 4.6 mph - N/A   Clear
7:53 AM 34.0 °F 26.6 °F 21.0 °F 59% 30.17 in 10.0 mi NNW 9.2 mph - N/A   Clear
8:53 AM 37.9 °F 32.1 °F 23.0 °F 55% 30.18 in 10.0 mi NNE 8.1 mph - N/A   Clear
9:53 AM 42.1 °F 36.6 °F 24.1 °F 49% 30.19 in 10.0 mi North 9.2 mph - N/A   Clear
10:53 AM 45.0 °F 43.5 °F 24.1 °F 44% 30.17 in 10.0 mi Variable 3.5 mph - N/A   Clear
11:53 AM 48.0 °F - 28.0 °F 46% 30.15 in 10.0 mi Variable 4.6 mph - N/A   Clear
12:53 PM 50.0 °F - 28.9 °F 44% 30.12 in 10.0 mi Variable 3.5 mph - N/A   Clear
1:53 PM 51.1 °F - 28.9 °F 43% 30.09 in 10.0 mi Calm Calm - N/A   Clear
2:53 PM 53.1 °F - 28.9 °F 40% 30.09 in 10.0 mi Variable 6.9 mph - N/A   Clear
3:53 PM 53.1 °F - 30.0 °F 41% 30.06 in 10.0 mi South 8.1 mph - N/A   Clear
4:53 PM 53.1 °F - 30.0 °F 41% 30.06 in 10.0 mi SSW 5.8 mph - N/A   Clear
5:53 PM 51.1 °F - 30.0 °F 44% 30.05 in 10.0 mi Calm Calm - N/A   Clear
6:53 PM 44.1 °F 42.5 °F 34.0 °F 68% 30.07 in 10.0 mi North 3.5 mph - N/A   Clear
7:53 PM 37.9 °F 34.4 °F 30.9 °F 76% 30.08 in 10.0 mi NE 4.6 mph - N/A   Clear
8:53 PM 28.9 °F - 24.1 °F 82% 30.09 in 10.0 mi Calm Calm - N/A   Clear
9:53 PM 30.9 °F - 26.1 °F 82% 30.06 in 10.0 mi Calm Calm - N/A   Clear
11:53 PM 26.1 °F - 21.0 °F 81% 30.05 in 10.0 mi Calm Calm - N/A   Clear